Location: Caltech
(34.1382°N, 118.1253°W)
Time: 19:49:08
(UTC-08:00)

Cosmos 1833 - Visible Passes

Search period start: 24 January 2015 00:00
Search period end: 03 February 2015 00:00
Orbit: 841 x 858 km, 70.9° (Epoch: 24 January)

Date Brightness Start Highest point End Pass type
(mag) Time Alt. Az. Time Alt. Az. Time Alt. Az.
24 Jan 5.0 17:45:25 10° NNW 17:50:59 57° WSW 17:56:29 10° S visible
25 Jan 5.1 17:32:43 10° NNW 17:38:18 58° WSW 17:43:47 10° S visible
27 Jan 4.8 06:24:26 10° S 06:30:05 66° ESE 06:35:47 10° NNE visible
28 Jan 4.8 06:11:45 10° S 06:17:24 66° ESE 06:23:05 10° NNE visible
29 Jan 4.8 05:59:04 10° S 06:04:42 65° ESE 06:10:24 10° NNE visible
30 Jan 4.7 05:46:22 10° S 05:52:01 64° ESE 05:57:42 10° NNE visible
31 Jan 4.7 05:33:41 10° S 05:39:19 64° ESE 05:45:00 10° NNE visible
01 Feb 4.7 05:21:00 10° S 05:26:38 63° ESE 05:32:18 10° NNE visible
02 Feb 4.7 05:08:19 10° S 05:13:57 63° ESE 05:19:37 10° NNE visible
